H1 CPF 2 NER 2025 8 5 9 217 01 glonass127 H2 1106403 9127 37869 2025 8 5 0 0 0 2025 8 8 23 45 0 900 1 1 0 0 0 1 H9 10 0 60892 0.00000 0 -17831047.028 17492415.679 5325768.004 10 0 60892 900.00000 0 -17180772.651 16935631.705 8402362.257 10 0 60892 1800.00000 0 -16367973.898 16027579.194 11316458.940 10 0 60892 2700.00000 0 -15451508.898 14764641.807 14011837.489 10 0 60892 3600.00000 0 -14491362.096 13156302.747 16436550.178 10 0 60892 4500.00000 0 -13546029.997 11224970.347 18543900.061 10 0 60892 5400.00000 0 -12669990.997 9005277.618 20293316.873 10 0 60892 6300.00000 0 -11911363.198 6542884.766 21651116.382 10 0 60892 7200.00000 0 -11309845.988 3892833.449 22591130.778 10 0 60892 8100.00000 0 -10895029.309 1117519.269 23095199.937 10 0 60892 9000.00000 0 -10685139.497 -1715636.017 23153515.526 10 0 60892 9900.00000 0 -10686273.028 -4536719.180 22764812.126 10 0 60892 10800.00000 0 -10892149.888 -7275965.414 21936401.737 10 0 60892 11700.00000 0 -11284397.517 -9866397.424 20684050.307 10 0 60892 12600.00000 0 -11833354.896 -12246357.166 19031697.195 10 0 60892 13500.00000 0 -12499365.253 -14361827.547 17011020.948 10 0 60892 14400.00000 0 -13234505.790 -16168449.086 14660857.239 10 0 60892 15300.00000 0 -13984684.457 -17633148.142 12026477.517 10 0 60892 16200.00000 0 -14692018.100 -18735308.446 9158739.604 10 0 60892 17100.00000 0 -15297393.699 -19467435.823 6113124.215 10 0 60892 18000.00000 0 -15743105.750 -19835286.479 2948674.158 10 0 60892 18900.00000 0 -15975458.463 -19857451.417 -273144.523 10 0 60892 19800.00000 0 -15947221.788 -19564412.397 -3489637.896 10 0 60892 20700.00000 0 -15619835.346 -18997107.465 -6638112.453 10 0 60892 21600.00000 0 -14965264.187 -18205065.390 -9657111.495 10 0 60892 22500.00000 0 -13967424.486 -17244187.381 -12487633.891 10 0 60892 23400.00000 0 -12623115.280 -16174270.248 -15074309.335 10 0 60892 24300.00000 0 -10942413.406 -15056376.891 -17366504.851 10 0 60892 25200.00000 0 -8948511.923 -13950167.141 -19319338.604 10 0 60892 26100.00000 0 -6677006.508 -12911304.006 -20894578.951 10 0 60892 27000.00000 0 -4174658.297 -11989047.304 -22061409.337 10 0 60892 27900.00000 0 -1497684.517 -11224138.498 -22797042.645 10 0 60892 28800.00000 0 1290351.207 -10647067.791 -23087172.096 10 0 60892 29700.00000 0 4120959.673 -10276797.707 -22926249.547 10 0 60892 30600.00000 0 6923355.559 -10119997.286 -22317585.935 10 0 60892 31500.00000 0 9627184.167 -10170818.667 -21273272.596 10 0 60892 32400.00000 0 12165230.341 -10411224.136 -19813926.089 10 0 60892 33300.00000 0 14475995.574 -10811847.842 -17968262.952 10 0 60892 34200.00000 0 16506035.463 -11333353.378 -15772514.385 10 0 60892 35100.00000 0 18211960.422 -11928227.207 -13269694.150 10 0 60892 36000.00000 0 19562017.432 -12542929.592 -10508735.814 10 0 60892 36900.00000 0 20537188.864 -13120309.807 -7543518.056 10 0 60892 37800.00000 0 21131765.234 -13602181.716 -4431798.696 10 0 60892 38700.00000 0 21353371.268 -13931949.737 -1234079.596 10 0 60892 39600.00000 0 21222447.704 -14057173.772 1987574.410 10 0 60892 40500.00000 0 20771214.036 -13931965.118 5170738.997 10 0 60892 41400.00000 0 20042158.782 -13519113.171 8253832.878 10 0 60892 42300.00000 0 19086123.039 -12791854.741 11177296.487 10 0 60892 43200.00000 0 17960059.295 -11735213.163 13884725.091 10 0 60892 44100.00000 0 16724560.084 -10346852.598 16323935.991 10 0 60892 45000.00000 0 15441259.703 -8637413.072 18447951.148 10 0 60892 45900.00000 0 14170216.541 -6630313.073 20215878.555 10 0 60892 46800.00000 0 12967383.654 -4361028.045 21593677.719 10 0 60892 47700.00000 0 11882270.973 -1875874.124 22554796.741 10 0 60892 48600.00000 0 10955894.376 769653.855 23080670.708 10 0 60892 49500.00000 0 10219094.998 3512923.466 23161073.254 10 0 60892 50400.00000 0 9691297.195 6286503.160 22794315.342 10 0 60892 51300.00000 0 9379755.972 9020704.529 21987287.572 10 0 60892 52200.00000 0 9279325.105 11646226.394 20755344.475 10 0 60892 53100.00000 0 9372756.321 14096794.256 19122031.644 10 0 60892 54000.00000 0 9631518.510 16311688.230 17118658.947 10 0 60892 54900.00000 0 10017104.663 18238056.341 14783725.529 10 0 60892 55800.00000 0 10482774.088 19832917.826 12162205.037 10 0 60892 56700.00000 0 10975659.018 21064772.954 9304702.178 10 0 60892 57600.00000 0 11439148.944 21914751.171 6266494.438 10 0 60892 58500.00000 0 11815453.471 22377247.861 3106475.610 10 0 60892 59400.00000 0 12048235.967 22460020.865 -113979.724 10 0 60892 60300.00000 0 12085206.136 22183740.402 -3332209.312 10 0 60892 61200.00000 0 11880560.272 21581009.171 -6485490.486 10 0 60892 62100.00000 0 11397163.454 20694892.242 -9512276.741 10 0 60892 63000.00000 0 10608378.158 19577017.696 -12353417.955 10 0 60892 63900.00000 0 9499458.367 18285327.988 -14953338.388 10 0 60892 64800.00000 0 8068446.634 16881577.598 -17261147.149 10 0 60892 65700.00000 0 6326532.808 15428683.954 -19231657.114 10 0 60892 66600.00000 0 4297856.550 13988045.378 -20826290.110 10 0 60892 67500.00000 0 2018759.825 12616941.399 -22013848.822 10 0 60892 68400.00000 0 -463480.345 11366127.225 -22771138.873 10 0 60892 69300.00000 0 -3092386.022 10277725.645 -23083427.980 10 0 60892 70200.00000 0 -5804406.249 9383506.449 -22944732.862 10 0 60892 71100.00000 0 -8531348.620 8703626.348 -22357928.452 10 0 60892 72000.00000 0 -11203011.444 8245882.142 -21334677.961 10 0 60892 72900.00000 0 -13749905.113 8005507.347 -19895186.250 10 0 60892 73800.00000 0 -16105947.799 7965518.911 -18067782.753 10 0 60892 74700.00000 0 -18211022.140 8097596.769 -15888343.809 10 0 60892 75600.00000 0 -20013286.034 8363456.268 -13399567.474 10 0 60892 76500.00000 0 -21471141.697 8716652.424 -10650116.876 10 0 60892 77400.00000 0 -22554782.118 9104737.012 -7693650.634 10 0 60892 78300.00000 0 -23247252.478 9471674.876 -4587760.952 10 0 60892 79200.00000 0 -23544984.925 9760415.517 -1392841.435 10 0 60892 80100.00000 0 -23457787.527 9915510.191 1829092.217 10 0 60892 81000.00000 0 -23008291.150 9885663.645 5015605.144 10 0 60892 81900.00000 0 -22230880.601 9626113.189 8105046.437 10 0 60892 82800.00000 0 -21170157.440 9100735.798 11037729.545 10 0 60892 83700.00000 0 -19879000.822 8283795.938 13757068.152 10 0 60892 84600.00000 0 -18416308.598 7161262.231 16210647.123 10 0 60892 85500.00000 0 -16844513.299 5731639.160 18351209.742 10 0 60893 0.00000 0 -15226976.165 4006280.233 20137544.344 10 0 60893 900.00000 0 -13625365.542 2009169.017 21535256.468 10 0 60893 1800.00000 0 -12097129.012 -223820.802 22517411.616 10 0 60893 2700.00000 0 -10693159.240 -2646159.732 23065041.402 10 0 60893 3600.00000 0 -9455750.440 -5202339.643 23167502.363 10 0 60893 4500.00000 0 -8416927.536 -7829927.730 22822682.417 10 0 60893 5400.00000 0 -7597216.083 -10461915.086 22037050.936 10 0 60893 6300.00000 0 -7004903.352 -13029265.960 20825550.824 10 0 60893 7200.00000 0 -6635821.319 -15463565.211 19211333.317 10 0 60893 8100.00000 0 -6473661.387 -17699656.996 17225338.625 10 0 60893 9000.00000 0 -6490809.141 -19678167.305 14905728.013 10 0 60893 9900.00000 0 -6649666.088 -21347806.683 12297175.630 10 0 60893 10800.00000 0 -6904405.020 -22667357.510 9450031.041 10 0 60893 11700.00000 0 -7203087.175 -23607262.244 6419366.196 10 0 60893 12600.00000 0 -7490053.512 -24150744.636 3263923.328 10 0 60893 13500.00000 0 -7708490.008 -24294414.796 44982.789 10 0 60893 14400.00000 0 -7803058.492 -24048330.190 -3174827.795 10 0 60893 15300.00000 0 -7722480.613 -23435507.493 -6332759.708 10 0 60893 16200.00000 0 -7421963.588 -22490903.629 -9367179.870 10 0 60893 17100.00000 0 -6865362.174 -21259907.307 -12218792.489 10 0 60893 18000.00000 0 -6026982.025 -19796403.798 -14831819.713 10 0 60893 18900.00000 0 -4892944.527 -18160494.547 -17155115.967 10 0 60893 19800.00000 0 -3462051.909 -16415968.583 -19143191.853 10 0 60893 20700.00000 0 -1746113.018 -14627633.807 -20757125.357 10 0 60893 21600.00000 0 230286.500 -12858622.517 -21965340.656 10 0 60893 22500.00000 0 2430561.600 -11167786.685 -22744237.846 10 0 60893 23400.00000 0 4807420.964 -9607294.530 -23078660.315 10 0 60893 24300.00000 0 7304621.571 -8220530.938 -22962190.245 10 0 60893 25200.00000 0 9859110.494 -7040390.787 -22397266.623 10 0 60893 26100.00000 0 12403462.993 -6088036.873 -21395124.076 10 0 60893 27000.00000 0 14868513.469 -5372173.720 -19975554.828 10 0 60893 27900.00000 0 17186067.860 -4888865.971 -18166499.824 10 0 60893 28800.00000 0 19291582.914 -4621906.468 -16003478.686 10 0 60893 29700.00000 0 21126699.704 -4543715.458 -13528871.468 10 0 60893 30600.00000 0 22641525.541 -4616729.648 -10791068.107 10 0 60893 31500.00000 0 23796569.594 -4795219.253 -7843503.995 10 0 60893 32400.00000 0 24564252.843 -5027453.262 -4743602.195 10 0 60893 33300.00000 0 24929931.395 -5258119.030 -1551644.285 10 0 60893 34200.00000 0 24892393.072 -5430892.192 1670407.078 10 0 60893 35100.00000 0 24463809.475 -5491047.386 4860110.374 10 0 60893 36000.00000 0 23669148.565 -5387999.407 7955748.788 10 0 60893 36900.00000 0 22545075.049 -5077668.168 10897512.205 10 0 60893 37800.00000 0 21138386.746 -4524568.971 13628635.753 10 0 60893 38700.00000 0 19504053.719 -3703541.587 16096474.431 10 0 60893 39600.00000 0 17702942.580 -2601047.081 18253494.933 10 0 60893 40500.00000 0 15799320.549 -1215979.304 20058167.815 10 0 60893 41400.00000 0 13858241.981 440042.072 21475745.131 10 0 60893 42300.00000 0 11942924.290 2342909.078 22478910.804 10 0 60893 43200.00000 0 10112219.947 4456784.322 23048293.202 10 0 60893 44100.00000 0 8418287.063 6735351.189 23172831.590 10 0 60893 45000.00000 0 6904552.881 9123505.697 22849990.251 10 0 60893 45900.00000 0 5604052.713 11559422.710 22085816.358 10 0 60893 46800.00000 0 4538211.912 13976914.054 20894839.860 10 0 60893 47700.00000 0 3716120.870 16307983.956 19299815.985 10 0 60893 48600.00000 0 3134333.372 18485478.820 17331313.348 10 0 60893 49500.00000 0 2777197.576 20445723.692 15027153.160 10 0 60893 50400.00000 0 2617707.272 22131037.383 12431707.689 10 0 60893 51300.00000 0 2618839.548 23492022.128 9595068.813 10 0 60893 52200.00000 0 2735324.582 24489531.890 6572100.265 10 0 60893 53100.00000 0 2915774.720 25096235.654 3421389.913 10 0 60893 54000.00000 0 3105084.154 25297708.174 204121.026 10 0 60893 54900.00000 0 3246998.187 25092999.778 -3017116.263 10 0 60893 55800.00000 0 3286742.833 24494658.485 -6179549.984 10 0 60893 56700.00000 0 3173601.956 23528200.863 -9221463.149 10 0 60893 57600.00000 0 2863330.426 22231051.656 -12083416.747 10 0 60893 58500.00000 0 2320298.094 20650995.357 -14709433.013 10 0 60893 59400.00000 0 1519270.393 18844204.233 -17048113.607 10 0 60893 60300.00000 0 446746.749 16872926.068 -19053668.505 10 0 60893 61200.00000 0 -898203.038 14802929.911 -20686833.228 10 0 60893 62100.00000 0 -2503642.520 12700818.865 -21915654.571 10 0 60893 63000.00000 0 -4345026.983 10631324.795 -22716127.977 10 0 60893 63900.00000 0 -6386006.849 8654700.540 -23072673.117 10 0 60893 64800.00000 0 -8579742.697 6824320.754 -22978437.948 10 0 60893 65700.00000 0 -10870676.355 5184593.155 -22435425.473 10 0 60893 66600.00000 0 -13196682.713 3769268.123 -21454441.319 10 0 60893 67500.00000 0 -15491510.750 2600217.001 -20054864.249 10 0 60893 68400.00000 0 -17687409.972 1686728.860 -18264245.475 10 0 60893 69300.00000 0 -19717830.875 1025352.920 -16117746.302 10 0 60893 70200.00000 0 -21520085.335 600290.228 -13657426.875 10 0 60893 71100.00000 0 -23037855.048 384314.644 -10931401.788 10 0 60893 72000.00000 0 -24223443.148 340180.737 -7992880.898 10 0 60893 72900.00000 0 -25039675.648 422455.759 -4899115.704 10 0 60893 73800.00000 0 -25461374.678 579695.353 -1710273.252 10 0 60893 74700.00000 0 -25476344.005 756868.734 1511739.405 10 0 60893 75600.00000 0 -25085828.187 897929.333 4704476.703 10 0 60893 76500.00000 0 -24304428.866 948421.631 7806158.585 10 0 60893 77400.00000 0 -23159484.356 858014.275 10756854.045 10 0 60893 78300.00000 0 -21689940.718 582853.491 13499622.315 10 0 60893 79200.00000 0 -19944763.089 87639.008 15981591.094 10 0 60893 80100.00000 0 -17980954.404 -652663.218 18154952.898 10 0 60893 81000.00000 0 -15861264.021 -1651541.818 19977862.536 10 0 60893 81900.00000 0 -13651680.666 -2910146.799 21415220.760 10 0 60893 82800.00000 0 -11418812.243 -4417014.824 22439331.238 10 0 60893 83700.00000 0 -9227259.004 -6148324.596 23030420.220 10 0 60893 84600.00000 0 -7137086.469 -8068672.733 23177010.412 10 0 60893 85500.00000 0 -5201500.235 -10132339.636 22876142.800 10 0 60894 0.00000 0 -3464816.841 -12284995.090 22133442.424 10 0 60894 900.00000 0 -1960812.039 -14465776.956 20963025.779 10 0 60894 1800.00000 0 -711516.125 -16609656.929 19387251.441 10 0 60894 2700.00000 0 273497.157 -18650002.053 17436315.430 10 0 60894 3600.00000 0 997295.789 -20521225.339 15147697.589 10 0 60894 4500.00000 0 1475240.982 -22161418.243 12565466.692 10 0 60894 5400.00000 0 1734117.869 -23514856.172 9739455.034 10 0 60894 6300.00000 0 1810780.142 -24534272.435 6724315.964 10 0 60894 7200.00000 0 1750363.846 -25182804.535 3578480.609 10 0 60894 8100.00000 0 1604144.302 -25435529.349 363032.575 10 0 60894 9000.00000 0 1427125.835 -25280520.207 -2859478.228 10 0 60894 9900.00000 0 1275466.305 -24719378.454 -6026259.447 10 0 60894 10800.00000 0 1203846.406 -23767214.117 -9075513.152 10 0 60894 11700.00000 0 1262896.976 -22452073.739 -11947660.149 10 0 60894 12600.00000 0 1496795.910 -20813837.295 -14586525.809 10 0 60894 13500.00000 0 1941139.543 -18902629.251 -16940462.009 10 0 60894 14400.00000 0 2621181.969 -16776810.098 -18963380.911 10 0 60894 15300.00000 0 3550520.034 -14500633.236 -20615678.125 10 0 60894 16200.00000 0 4730282.486 -12141666.741 -21865025.252 10 0 60894 17100.00000 0 6148859.824 -9768089.880 -22687014.849 10 0 60894 18000.00000 0 7782187.757 -7445979.646 -23065644.146 10 0 60894 18900.00000 0 9594573.095 -5236702.788 -22993627.683 10 0 60894 19800.00000 0 11540027.225 -3194523.935 -22472532.807 10 0 60894 20700.00000 0 13564050.359 -1364530.720 -21512736.029 10 0 60894 21600.00000 0 15605790.329 219037.352 -20133202.105 10 0 60894 22500.00000 0 17600483.780 1533987.358 -18361091.568 10 0 60894 23400.00000 0 19482075.690 2570850.447 -16231206.033 10 0 60894 24300.00000 0 21185905.975 3333012.737 -13785283.932 10 0 60894 25200.00000 0 22651349.536 3836297.513 -11071162.285 10 0 60894 26100.00000 0 23824298.628 4108019.996 -8141822.748 10 0 60894 27000.00000 0 24659383.769 4185558.270 -5054342.213 10 0 60894 27900.00000 0 25121841.088 4114504.056 -1868769.844 10 0 60894 28800.00000 0 25188949.442 3946474.315 1353046.462 10 0 60894 29700.00000 0 24850979.235 3736678.221 4548660.724 10 0 60894 30600.00000 0 24111615.603 3541343.543 7656233.208 10 0 60894 31500.00000 0 22987840.677 3415111.452 10615715.431 10 0 60894 32400.00000 0 21509282.103 3408509.191 13369993.867 10 0 60894 33300.00000 0 19717056.691 3565606.020 15865971.738 10 0 60894 34200.00000 0 17662158.493 3921949.504 18055569.837 10 0 60894 35100.00000 0 15403458.659 4502867.179 19896629.295 10 0 60894 36000.00000 0 13005399.559 5322203.248 21353701.244 10 0 60894 36900.00000 0 10535477.537 6381542.132 22398710.381 10 0 60894 37800.00000 0 8061616.522 7669950.824 23011481.695 10 0 60894 38700.00000 0 5649538.778 9164251.210 23180121.784 10 0 60894 39600.00000 0 3360238.917 10829812.196 22901248.337 10 0 60894 40500.00000 0 1247663.099 12621830.689 22180063.631 10 0 60894 41400.00000 0 -643312.749 14487050.837 21030270.072 10 0 60894 42300.00000 0 -2278523.588 16365853.011 19473828.141 10 0 60894 43200.00000 0 -3635707.631 18194628.770 17540559.520 10 0 60894 44100.00000 0 -4705201.038 19908345.819 15267600.596 10 0 60894 45000.00000 0 -5490105.364 21443198.352 12698714.281 10 0 60894 45900.00000 0 -6005919.582 22739233.665 9883470.691 10 0 60894 46800.00000 0 -6279650.496 23742845.772 6876310.036 10 0 60894 47700.00000 0 -6348437.151 24409031.040 3735503.823 10 0 60894 48600.00000 0 -6257745.606 24703309.700 522033.042 10 0 60894 49500.00000 0 -6059209.107 24603230.127 -2701595.599 10 0 60894 50400.00000 0 -5808204.514 24099389.664 -5872572.305 10 0 60894 51300.00000 0 -5561267.909 23195925.759 -8929021.041 10 0 60894 52200.00000 0 -5373460.132 21910453.609 -11811225.100 10 0 60894 53100.00000 0 -5295795.906 20273450.130 -14462815.425 10 0 60894 54000.00000 0 -5372848.167 18327108.166 -16831896.274 10 0 60894 54900.00000 0 -5640632.123 16123707.830 -18872083.880 10 0 60894 55800.00000 0 -6124861.745 13723573.180 -20543435.528 10 0 60894 56700.00000 0 -6839655.350 11192700.503 -21813248.938 10 0 60894 57600.00000 0 -7786747.393 8600158.915 -22656714.798 10 0 60894 58500.00000 0 -8955241.516 6015373.826 -23057408.642 10 0 60894 59400.00000 0 -10321916.192 3505408.760 -23007612.009 10 0 60894 60300.00000 0 -11852070.263 1132360.778 -22508456.675 10 0 60894 61200.00000 0 -13500872.135 -1049020.491 -21569889.733 10 0 60894 62100.00000 0 -15215154.665 -2993390.324 -20210461.239 10 0 60894 63000.00000 0 -16935578.681 -4666457.391 -18456939.954 10 0 60894 63900.00000 0 -18599072.370 -6046155.737 -16343766.347 10 0 60894 64800.00000 0 -20141442.364 -7123293.543 -13912355.356 10 0 60894 65700.00000 0 -21500045.423 -7901654.589 -11210264.392 10 0 60894 66600.00000 0 -22616407.556 -8397551.774 -8290244.673 10 0 60894 67500.00000 0 -23438680.335 -8638855.301 -5209196.093 10 0 60894 68400.00000 0 -23923831.639 -8663540.238 -2027047.427 10 0 60894 69300.00000 0 -24039479.954 -8517817.985 1194415.199 10 0 60894 70200.00000 0 -23765296.900 -8253933.212 4392748.096 10 0 60894 71100.00000 0 -23093921.206 -7927721.075 7506054.641 10 0 60894 72000.00000 0 -22031348.043 -7596028.732 10474171.694 10 0 60894 72900.00000 0 -20596779.523 -7314109.941 13239815.802 10 0 60894 73800.00000 0 -18821944.334 -7133101.725 15749668.452 10 0 60894 74700.00000 0 -16749916.089 -7097687.916 17955381.291 10 0 60894 75600.00000 0 -14433479.999 -7244046.031 19814484.108 10 0 60894 76500.00000 0 -11933115.378 -7598161.803 21291180.420 10 0 60894 77400.00000 0 -9314676.490 -8174580.451 22357017.578 10 0 60894 78300.00000 0 -6646865.929 -8975645.837 22991420.535 10 0 60894 79200.00000 0 -3998602.602 -9991259.008 23182080.578 10 0 60894 80100.00000 0 -1436390.423 -11199166.706 22925192.501 10 0 60894 81000.00000 0 978206.277 -12565769.182 22225535.933 10 0 60894 81900.00000 0 3190878.818 -14047415.838 21096398.736 10 0 60894 82800.00000 0 5156587.869 -15592137.371 19559342.714 10 0 60894 83700.00000 0 6841192.736 -17141745.242 17643814.257 10 0 60894 84600.00000 0 8222629.189 -18634213.855 15386605.029 10 0 60894 85500.00000 0 9291586.626 -20006248.573 12831170.487 10 0 60895 0.00000 0 10051655.367 -21195934.006 10026816.911 10 0 60895 900.00000 0 10518936.857 -22145353.364 7027768.637 10 0 60895 1800.00000 0 10721130.460 -22803067.398 3892135.279 10 0 60895 2700.00000 0 10696134.889 -23126349.921 680792.471 10 0 60895 3600.00000 0 10490220.672 -23083082.188 -2543799.190 10 0 60895 4500.00000 0 10155850.447 -22653224.249 -5718815.474 10 0 60895 5400.00000 0 9749238.988 -21829797.894 -8782305.304 10 0 60895 6300.00000 0 9327756.969 -20619336.327 -11674417.505 10 0 60895 7200.00000 0 8947289.926 -19041778.417 -14338591.575 10 0 60895 8100.00000 0 8659666.528 -17129809.259 -16722687.011 10 0 60895 9000.00000 0 8510267.780 -14927672.848 -18780026.774 10 0 60895 9900.00000 0 8535921.287 -12489505.759 -20470332.210 10 0 60895 10800.00000 0 8763172.514 -9877261.596 -21760529.185 10 0 60895 11700.00000 0 9207008.602 -7158313.954 -22625408.147 10 0 60895 12600.00000 0 9870090.481 -4402839.522 -23048124.113 10 0 60895 13500.00000 0 10742526.865 -1681092.444 -23020526.355 10 0 60895 14400.00000 0 11802199.916 939314.547 -22543311.366 10 0 60895 15300.00000 0 13015628.401 3396007.257 -21625996.706 10 0 60895 16200.00000 0 14339330.780 5634216.205 -20286717.233 10 0 60895 17100.00000 0 15721629.191 7608812.998 -18551849.077 10 0 60895 18000.00000 0 17104816.402 9285932.703 -16455470.341 10 0 60895 18900.00000 0 18427592.529 10644116.170 -14038670.897 10 0 60895 19800.00000 0 19627667.212 11674927.170 -11348726.596 10 0 60895 20700.00000 0 20644416.295 12383021.774 -8438155.901 10 0 60895 21600.00000 0 21421480.477 12785670.813 -5363679.052 10 0 60895 22500.00000 0 21909196.450 12911759.378 -2185101.474 10 0 60895 23400.00000 0 22066758.838 12800309.081 1035855.636 10 0 60895 24300.00000 0 21864023.251 12498588.503 4236754.162 10 0 60895 25200.00000 0 21282876.378 12059893.868 7355643.889 10 0 60895 26100.00000 0 20318117.561 11541095.013 10332250.239 10 0 60895 27000.00000 0 18977816.857 11000050.617 13109122.874 10 0 60895 27900.00000 0 17283136.315 10493001.193 15632724.384 10 0 60895 28800.00000 0 15267623.189 10072048.384 17854439.846 10 0 60895 29700.00000 0 12976005.118 9782824.809 19731489.993 10 0 60895 30600.00000 0 10462537.163 9662450.278 21227732.707 10 0 60895 31500.00000 0 7788968.360 9737858.100 22314339.636 10 0 60895 32400.00000 0 5022210.259 10024559.932 22970336.966 10 0 60895 33300.00000 0 2231801.550 10525899.783 23183001.539 10 0 60895 34200.00000 0 -512729.133 11232828.111 22948105.670 10 0 60895 35100.00000 0 -3144496.230 12124206.050 22270006.274 10 0 60895 36000.00000 0 -5601780.053 13167628.566 21161576.094 10 0 60895 36900.00000 0 -7830337.422 14320734.362 19643977.176 10 0 60895 37800.00000 0 -9785406.265 15532950.527 17746279.061 10 0 60895 38700.00000 0 -11433322.071 16747601.929 15504926.719 10 0 60895 39600.00000 0 -12752679.178 17904299.800 12963065.830 10 0 60895 40500.00000 0 -13734987.946 18941511.774 10169735.746 10 0 60895 41400.00000 0 -14384799.112 19799207.069 7178943.188 10 0 60895 42300.00000 0 -14719288.439 20421466.212 4048632.533 10 0 60895 43200.00000 0 -14767317.260 20758945.047 839571.154 10 0 60895 44100.00000 0 -14568006.765 20771087.642 -2385829.401 10 0 60895 45000.00000 0 -14168884.837 20427992.346 -5564733.379 10 0 60895 45900.00000 0 -13623683.093 19711849.141 -8635117.500 10 0 60895 46800.00000 0 -12989877.420 18617884.146 -11536998.844 10 0 60895 47700.00000 0 -12326077.052 17154767.907 -14213628.005 10 0 60895 48600.00000 0 -11689374.444 15344467.102 -16612622.032 10 0 60895 49500.00000 0 -11132770.442 13221543.306 -18687012.644 10 0 60895 50400.00000 0 -10702786.342 10831926.553 -20396186.977 10 0 60895 51300.00000 0 -10437366.554 8231214.381 -21706700.466 10 0 60895 52200.00000 0 -10364162.953 5482567.695 -22592944.429 10 0 60895 53100.00000 0 -10499275.350 2654292.401 -23037654.159 10 0 60895 54000.00000 0 -10846502.502 -182790.701 -23032247.129 10 0 60895 54900.00000 0 -11397135.676 -2958076.341 -22576984.690 10 0 60895 55800.00000 0 -12130303.115 -5603889.950 -21680954.653 10 0 60895 56700.00000 0 -13013849.726 -8058073.144 -20361876.107 10 0 60895 57600.00000 0 -14005713.192 -10266331.114 -18645731.625 10 0 60895 58500.00000 0 -15055736.374 -12184244.175 -16566235.698 10 0 60895 59400.00000 0 -16107837.356 -13778860.646 -14164151.589 10 0 60895 60300.00000 0 -17102443.483 -15029806.526 -11486471.812 10 0 60895 61200.00000 0 -17979084.973 -15929868.361 -8585480.114 10 0 60895 62100.00000 0 -18679037.435 -16485028.304 -5517714.958 10 0 60895 63000.00000 0 -19147901.296 -16713953.641 -2342856.178 10 0 60895 63900.00000 0 -19338009.444 -16646965.983 877442.337 10 0 60895 64800.00000 0 -19210562.452 -16324536.913 4080750.541 10 0 60895 65700.00000 0 -18737402.783 -15795376.258 7205067.242 10 0 60895 66600.00000 0 -17902355.077 -15114195.491 10190009.149 10 0 60895 67500.00000 0 -16702078.038 -14339241.517 12977961.832 10 0 60895 68400.00000 0 -15146393.938 -13529704.726 15515171.760 10 0 60895 69300.00000 0 -13258083.258 -12743109.506 17752760.141 10 0 60895 70200.00000 0 -11072153.788 -12032795.317 19647641.179 10 0 60895 71100.00000 0 -8634614.616 -11445591.995 21163329.392 10 0 60895 72000.00000 0 -6000805.171 -11019784.512 22270622.678 10 0 60895 72900.00000 0 -3233347.015 -10783450.314 22948150.045 10 0 60895 73800.00000 0 -399800.938 -10753237.117 23182775.091 10 0 60895 74700.00000 0 2429876.519 -10933631.223 22969848.469 10 0 60895 75600.00000 0 5185974.978 -11316746.757 22313304.816 10 0 60895 76500.00000 0 7801664.452 -11882645.316 21225601.841 10 0 60895 77400.00000 0 10215515.625 -12600174.202 19727501.556 10 0 60895 78300.00000 0 12373804.024 -13428290.377 17847696.034 10 0 60895 79200.00000 0 14232504.041 -14317817.345 15622282.559 10 0 60895 80100.00000 0 15758890.492 -15213564.033 13094095.664 10 0 60895 81000.00000 0 16932680.797 -16056719.236 10311906.246 10 0 60895 81900.00000 0 17746669.104 -16787422.917 7329500.711 10 0 60895 82800.00000 0 18206824.156 -17347407.226 4204655.864 10 0 60895 83700.00000 0 18331844.931 -17682596.029 998027.886 10 0 60895 84600.00000 0 18152190.742 -17745552.307 -2228023.877 10 0 60895 85500.00000 0 17708624.976 -17497668.085 -5410655.460 99